sat.trackr.live / text

‹ back to catalog

STARLINK-31050

NORAD 58546 · 2023-192R

PAYLOAD ACTIVE UNKNOWN

§ Identity

Operator
Country
US
Launch date
2023-12-08
Launch site
AFWTR
Launch vehicle
Mass (kg)
RCS (m²)

Purposes: comms

External: N2YO · Heavens-Above · Gunter

§ Orbital elements

Epoch: 2026-05-25T04:25:49.101312Z

Period
93.85 min
Inclination
53.1612°
Eccentricity
0.0001239
Mean motion
15.34386596 rev/d
Perigee alt
461.9 km
Apogee alt
463.6 km
Semi-major
6,840.9 km
B*
1.2389e-5
RAAN
66.9624°
Arg perigee
83.6098°
Mean anomaly
276.5046°
Rev number
13,770

§ Raw data

STARLINK-310501 58546U 23192R   26145.18459608  .00000042  00000+0  12389-4 0  99962 58546  53.1612  66.9624 0001239  83.6098 276.5046 15.34386596137708

JSON: /api/v1/satellites/58546 · /tle

For live sub-satellite position, see the globe view (requires WebGL).

§ Visibility from observer

Set your observer location to see the next 7 days of passes ≥ 10°. The values pass through the URL so the page stays shareable.

No JS? Fill the form by hand. The geolocation button needs JavaScript.